This demonstration page uses our WeatherBlox Daily Observations layout. Learn more.

Left ArrowRight Arrow

44.89941, -97.11507

Hourly Observations for July 15, 2020

Temp ( °F °C ) Dew Point ( °F °C ) Humidity (%) Winds ( mph kmh ) Pressure ( in mb ) Visibility ( mi km ) Precip ( " mm )
12:53 am 00:53 Clear 59 15 57 13.9 93 93 SSW 3 6 30.03 1017 10 16 0.00 0.00
1:53 am 01:53 Clear 59 15 57 13.9 93 93 SSW 6 9 30.01 1016 10 16 0.00 0.00
2:53 am 02:53 Clear 59 15 57 13.9 93 93 SE 5 7 30.00 1016 10 16 0.00 0.00
3:53 am 03:53 Clear 59 15 56 13.3 90 90 S 5 7 30.00 1016 10 16 0.00 0.00
4:53 am 04:53 Clear 58 14.4 56 13.3 93 93 Calm 30.01 1016 10 16 0.00 0.00
5:53 am 05:53 Clear 56 13.3 54 12.2 93 93 Calm 30.00 1016 10 16 0.00 0.00
6:53 am 06:53 Sunny 58 14.4 56 13.3 93 93 Calm 30.01 1016 10 16 0.00 0.00
7:53 am 07:53 Sunny 61 16.1 58 14.4 90 90 SSE 3 6 30.00 1016 10 16 0.00 0.00
8:53 am 08:53 Sunny 65 18.3 61 16.1 87 87 S 6 9 30.03 1017 10 16 0.00 0.00
9:53 am 09:53 Sunny 68 20 59 15 73 73 S 8 13 30.05 1018 10 16 0.00 0.00
10:53 am 10:53 Sunny 73 22.8 57 13.9 57 57 SSW 14 22 30.04 1017 10 16 0.00 0.00
11:53 am 11:53 Sunny 76 24.4 52 11.1 43 43 SSW 16 26 30.04 1017 10 16 0.00 0.00
12:53 pm 12:53 Sunny 77 25 53 11.7 43 43 SW 12 19 30.02 1017 10 16 0.00 0.00
1:53 pm 13:53 Sunny 79 26.1 52 11.1 39 39 SSW 15 24 30.01 1016 10 16 0.00 0.00
2:53 pm 14:53 Sunny 80 26.7 55 12.8 42 42 SSW 12 19 29.99 1016 10 16 0.00 0.00
3:53 pm 15:53 Sunny 81 27.2 56 13.3 42 42 SSW 13 20 29.98 1015 10 16 0.00 0.00
4:53 pm 16:53 Sunny 80 26.7 55 12.8 42 42 SSW 13 20 29.97 1015 10 16 0.00 0.00
5:53 pm 17:53 Sunny 80 26.7 50 10 35 35 SW 14 22 29.95 1014 10 16 0.00 0.00
6:53 pm 18:53 Sunny 79 26.1 52 11.1 39 39 SW 12 19 29.94 1014 10 16 0.00 0.00
7:53 pm 19:53 Sunny 76 24.4 53 11.7 45 45 SW 8 13 29.93 1014 10 16 0.00 0.00
8:53 pm 20:53 Sunny 70 21.1 58 14.4 66 66 SSW 6 9 29.94 1014 10 16 0.00 0.00
9:53 pm 21:53 Clear 69 20.6 57 13.9 66 66 SSE 6 9 29.95 1014 10 16 0.00 0.00
10:53 pm 22:53 Clear 66 18.9 58 14.4 75 75 S 7 11 29.96 1015 10 16 0.00 0.00
11:53 pm 23:53 Clear 66 18.9 58 14.4 75 75 S 9 15 29.96 1015 10 16 0.00 0.00

Powered by AerisWeather